Regional Weather Roundup
Issued by NWS

Home | Current Version | Previous Version | Graphics & Text | Print | Product List | Glossary On
Versions: 1 2 3 4 5 6 7 8 9 10 11 12 13 14 15 16 17 18 19 20 21 22 23 24 25 26 27 28 29 30 31 32 33 34 35 36 37 38 39 40 41 42 43 44 45 46 47 48 49 50
000
ASUS43 KLOT 271900
RWRIL

ILLINOIS REGIONAL WEATHER ROUNDUP
NATIONAL WEATHER SERVICE CHICAGO/ROMEOVILLE IL
100 PM CST SAT DEC 27 2014

NOTE: "FAIR" INDICATES FEW OR NO CLOUDS BELOW 12,000 FEET WITH NO
SIGNIFICANT WEATHER AND/OR OBSTRUCTIONS TO VISIBILITY.

* THESE STATIONS ARE NOT UNDER NWS QUALITY CONTROL. THEY ALSO MAY NOT
  REPORT WEATHER SUCH AS PRECIPITATION OR FOG.

ILZ001-002-007-009-015-016-024-272000-
NORTHWEST ILLINOIS

CITY           SKY/WX    TMP DP  RH WIND       PRES   REMARKS
MOLINE         CLOUDY    34  25  69 W21G28    30.09R WCI  22
STERLING*      CLOUDY    36  27  69 NW20G26   30.03F WCI  25
$$

ILZ003-004-008-010-011-017-018-272000-
NORTH CENTRAL ILLINOIS

CITY           SKY/WX    TMP DP  RH WIND       PRES   REMARKS
ROCKFORD       CLOUDY    35  28  75 W17G25    29.99F WCI  25
$$

ILZ005-006-012>014-019>023-272000-
NORTHEAST ILLINOIS

CITY           SKY/WX    TMP DP  RH WIND       PRES   REMARKS
CHICAGO-OHARE  CLOUDY    38  31  76 W20G30    29.97S WCI  28
CHICAGO-MIDWAY CLOUDY    41  34  76 W20G28    30.00R
AURORA         CLOUDY    38  30  73 W23       29.99F WCI  27
WAUKEGAN       CLOUDY    38  31  76 SW14G24   29.93R WCI  30
DUPAGE AIRPORT CLOUDY    37  31  78 W21G29    30.00S WCI  26
WHEELING       CLOUDY    39  31  72 W14G23    29.97F WCI  31
NORTHERLY ISL    N/A     40  33  76 W14         N/A
$$

LMZ740>746-272000-
SOUTHERN LAKE MICHIGAN

STATION/POSITION SKY/WX   TEMP    WIND        PRES    VSBY  WAVE
                          AIR SEA DIR/SP/G                  HT/PER
                          (F)     (DEG/KT/KT) (MB)    (MI)  (FT/S)
WAUKEGAN HARBOR            39     240/ 24/ 34   N/A
HARRISON CRIB              44     240/ 24/ 33   N/A
BURNHAM HARBOR             40     240/ 16/ 19   N/A
CALUMET HARBOR             42     230/ 13/ 20 1013.8S
MICHIGAN CITY              47     180/ 22/ 30   N/A
$$

ILZ025>027-034>036-040-047-049-050-058-095>099-272000-
WEST-CENTRAL ILLINOIS

CITY           SKY/WX    TMP DP  RH WIND       PRES   REMARKS
QUINCY         CLOUDY    37  29  72 W10       30.13F WCI  30
MACOMB*        CLOUDY    37  31  79 W15G24    30.15R WCI  28
$$

ILZ028>032-037-038-041>044-048-051>054-059>061-272000-
CENTRAL ILLINOIS

CITY           SKY/WX    TMP DP  RH WIND       PRES   REMARKS
DECATUR        CLOUDY    42  37  82 W14G21    30.09S
PEORIA         CLOUDY    40  29  64 W17G25    30.12R
LINCOLN*       CLOUDY    41  34  76 W7G17     30.09F
SPRINGFIELD    CLOUDY    40  32  73 W14       30.13R
TAYLORVILLE    NOT AVBL
$$

ILZ033-039-045-046-055>057-062-063-272000-
EAST-CENTRAL ILLINOIS

CITY           SKY/WX    TMP DP  RH WIND       PRES   REMARKS
CHAMPAIGN      CLOUDY    45  42  89 W20       30.06F
MATTOON        CLOUDY    48  47  96 SW8       30.06F FOG
$$

ILZ079-100>102-272000-
SOUTHWEST ILLINOIS

CITY           SKY/WX    TMP DP  RH WIND       PRES   REMARKS
BELLEVILLE     CLOUDY    42  40  92 NW13      30.14S
CAHOKIA*       CLOUDY    43  36  76 W12       30.17R
SPARTA*        CLOUDY    43  42  97 W9        30.14F FOG
$$

ILZ064>066-069>071-074>076-080>082-084>086-088>090-092>094-272000-
SOUTH-CENTRAL ILLINOIS

CITY           SKY/WX    TMP DP  RH WIND       PRES   REMARKS
CARBONDALE     LGT RAIN  50  48  93 W7        30.12S FOG
MT. VERNON     CLOUDY    48  45  87 W7        30.11F
$$

ILZ067-068-072-073-078-083-087-091-272000-
SOUTHEAST ILLINOIS

CITY           SKY/WX    TMP DP  RH WIND       PRES   REMARKS
LAWRENCEVILLE  CLOUDY    49  48  97 S6        30.10F FOG
ROBINSON*      CLOUDY    49  47  95 SW8       30.10F FOG
$$

ABBREVIATIONS USED IN REMARKS
   TC - TEMPERATURE IN CELSIUS
  WCI - WIND CHILL INDEX
   HX - HEAT INDEX
  VSB - VISIBILITY
$$




USA.gov is the U.S. government's official web portal to all federal, state and local government web resources and services.